AEA3AT LIEE-LEGE

Flight info

Callsign AEA3AT
Flight time 0h 48m
Altitude 34000
Route KOVAS DCT CAPOF DCT XATOS DCT BAVON DCT OSPOK DCT AGENA L16 BGR
Aircraft B738/M-SDE2E3FGHIRWXY/LB1

Departure

Time 2026-04-22 11:27
Airport Cagliari Elmas Airport (LIEE)

Arrival

Time 2026-04-22 12:16
Airport Girona-Costa Brava Airport (LEGE)
Time Latitude Longitude Altitude Speed Heading
2026-04-22 11:24 39.25317 9.05801 22 ft 0 kts 113°
2026-04-22 11:24 39.25309 9.05808 22 ft 2 kts 192°
2026-04-22 11:25 39.25299 9.05778 22 ft 6 kts 253°
2026-04-22 11:25 39.25336 9.05667 22 ft 20 kts 307°
2026-04-22 11:25 39.25407 9.05477 22 ft 23 kts 284°
2026-04-22 11:25 39.25518 9.05273 22 ft 34 kts 319°
2026-04-22 11:26 39.25721 9.05039 22 ft 41 kts 317°
2026-04-22 11:26 39.25934 9.04794 22 ft 39 kts 318°
2026-04-22 11:26 39.26121 9.04542 22 ft 37 kts 288°
2026-04-22 11:26 39.26019 9.04417 22 ft 27 kts 137°
2026-04-22 11:27 39.25782 9.04697 22 ft 78 kts 138°
2026-04-22 11:27 39.25212 9.05353 22 ft 137 kts 139°
2026-04-22 11:27 39.24404 9.06305 229 ft 167 kts 138°
2026-04-22 11:27 39.23537 9.07327 832 ft 173 kts 139°
2026-04-22 11:28 39.22622 9.08356 1458 ft 178 kts 138°
2026-04-22 11:28 39.21700 9.09408 1893 ft 185 kts 135°
2026-04-22 11:28 39.20767 9.10615 2303 ft 198 kts 138°
2026-04-22 11:28 39.19568 9.11626 2667 ft 217 kts 158°
2026-04-22 11:29 39.18042 9.11999 3063 ft 235 kts 186°
2026-04-22 11:29 39.16472 9.11327 3704 ft 240 kts 216°
2026-04-22 11:29 39.15264 9.09909 4442 ft 239 kts 231°
2026-04-22 11:29 39.14428 9.08088 5120 ft 240 kts 256°
2026-04-22 11:30 39.14243 9.05976 5886 ft 238 kts 276°
2026-04-22 11:30 39.14554 9.03879 6453 ft 245 kts 293°
2026-04-22 11:30 39.15487 9.02022 6896 ft 257 kts 315°
2026-04-22 11:30 39.16831 9.00465 7450 ft 266 kts 320°
2026-04-22 11:31 39.18256 8.98913 8158 ft 270 kts 319°
2026-04-22 11:31 39.19691 8.97310 8864 ft 274 kts 319°
2026-04-22 11:31 39.21100 8.95697 9626 ft 275 kts 318°
2026-04-22 11:31 39.22560 8.94107 10326 ft 278 kts 324°
2026-04-22 11:32 39.24312 8.92972 10957 ft 285 kts 345°
2026-04-22 11:32 39.26314 8.92641 11457 ft 298 kts 355°
2026-04-22 11:32 39.28405 8.92574 12096 ft 304 kts 356°
2026-04-22 11:32 39.30524 8.92520 12788 ft 307 kts 356°
2026-04-22 11:33 39.32650 8.92427 13510 ft 310 kts 355°
2026-04-22 11:33 39.34820 8.92298 14208 ft 314 kts 354°
2026-04-22 11:33 39.37001 8.92148 14927 ft 317 kts 354°
2026-04-22 11:33 39.39209 8.91987 15662 ft 320 kts 354°
2026-04-22 11:34 39.41438 8.91940 16359 ft 325 kts 360°
2026-04-22 11:34 39.43693 8.92402 17006 ft 333 kts 14°
2026-04-22 11:34 39.45845 8.93556 17723 ft 338 kts 23°
2026-04-22 11:34 39.47924 8.94984 18346 ft 343 kts 25°
2026-04-22 11:35 39.49992 8.96499 18977 ft 347 kts 26°
2026-04-22 11:35 39.52125 8.97946 19580 ft 347 kts 19°
2026-04-22 11:35 39.54438 8.98869 20202 ft 344 kts
2026-04-22 11:35 39.56792 8.99132 20809 ft 342 kts 355°
2026-04-22 11:36 39.59125 8.98749 21373 ft 341 kts 343°
2026-04-22 11:36 39.61358 8.97723 21928 ft 340 kts 332°
2026-04-22 11:36 39.63364 8.96102 22468 ft 341 kts 320°
2026-04-22 11:36 39.65066 8.93954 23030 ft 342 kts 310°
2026-04-22 11:37 39.66551 8.91542 23538 ft 345 kts 308°
2026-04-22 11:37 39.68018 8.89055 24044 ft 348 kts 307°
2026-04-22 11:37 39.69503 8.86609 24561 ft 351 kts 308°
2026-04-22 11:37 39.70923 8.84004 24992 ft 355 kts 300°
2026-04-22 11:38 39.72023 8.81144 25529 ft 356 kts 293°
2026-04-22 11:38 39.72819 8.78103 25946 ft 360 kts 285°
2026-04-22 11:38 39.73510 8.71645 26885 ft 364 kts 281°
2026-04-22 11:39 39.74029 8.68398 27304 ft 366 kts 285°
2026-04-22 11:39 39.74724 8.65202 27738 ft 368 kts 288°
2026-04-22 11:39 39.75493 8.62050 28160 ft 370 kts 289°
2026-04-22 11:39 39.76300 8.58853 28539 ft 373 kts 289°
2026-04-22 11:40 39.77093 8.55676 28980 ft 374 kts 288°
2026-04-22 11:40 39.77736 8.52414 29295 ft 379 kts 281°
2026-04-22 11:40 39.77932 8.48974 29673 ft 383 kts 270°
2026-04-22 11:40 39.77658 8.45520 30071 ft 386 kts 263°
2026-04-22 11:41 39.77148 8.42112 30441 ft 388 kts 261°
2026-04-22 11:41 39.76549 8.38718 30784 ft 390 kts 259°
2026-04-22 11:41 39.75920 8.35296 31159 ft 392 kts 259°
2026-04-22 11:41 39.75287 8.31825 31478 ft 394 kts 259°
2026-04-22 11:42 39.74672 8.28370 31862 ft 395 kts 260°
2026-04-22 11:42 39.74065 8.24884 32209 ft 396 kts 260°
2026-04-22 11:42 39.73467 8.21401 32524 ft 398 kts 260°
2026-04-22 11:42 39.72874 8.17906 32874 ft 399 kts 260°
2026-04-22 11:43 39.72279 8.14384 33193 ft 400 kts 260°
2026-04-22 11:43 39.71689 8.10880 33517 ft 401 kts 260°
2026-04-22 11:43 39.71094 8.07313 33821 ft 402 kts 261°
2026-04-22 11:43 39.70657 8.03735 33999 ft 404 kts 266°
2026-04-22 11:44 39.71074 7.96579 33997 ft 396 kts 285°
2026-04-22 11:44 39.72800 7.89812 33993 ft 398 kts 291°
2026-04-22 11:45 39.74836 7.83153 33993 ft 396 kts 292°
2026-04-22 11:45 39.76900 7.76500 33993 ft 398 kts 292°
2026-04-22 11:46 39.78934 7.69839 33993 ft 395 kts 291°
2026-04-22 11:46 39.81083 7.63240 33992 ft 397 kts 295°
2026-04-22 11:47 39.84938 7.53141 33994 ft 397 kts 296°
2026-04-22 11:47 39.92195 7.33924 33999 ft 397 kts 295°
2026-04-22 11:48 39.99245 7.14459 34006 ft 399 kts 295°
2026-04-22 11:48 40.06322 6.94876 34011 ft 396 kts 295°
2026-04-22 11:49 40.12873 6.76774 34006 ft 397 kts 294°
2026-04-22 11:49 40.16533 6.66582 34007 ft 399 kts 294°
2026-04-22 11:50 40.20141 6.56491 34011 ft 397 kts 294°
2026-04-22 11:50 40.23729 6.46417 34009 ft 397 kts 294°
2026-04-22 11:51 40.27330 6.36278 34011 ft 398 kts 294°
2026-04-22 11:51 40.30910 6.26159 34008 ft 399 kts 293°
2026-04-22 11:52 40.34519 6.15927 34009 ft 399 kts 293°
2026-04-22 11:52 40.38098 6.05746 34009 ft 400 kts 293°
2026-04-22 11:53 40.41680 5.95522 34012 ft 400 kts 293°
2026-04-22 11:53 40.45250 5.85284 34007 ft 401 kts 293°
2026-04-22 11:54 40.48842 5.74954 34008 ft 401 kts 293°
2026-04-22 11:54 40.52407 5.64661 34009 ft 401 kts 293°
2026-04-22 11:55 40.56573 5.52998 34006 ft 403 kts 297°
2026-04-22 11:55 40.62156 5.41672 34009 ft 405 kts 303°
2026-04-22 11:56 40.68080 5.30514 34009 ft 404 kts 302°
2026-04-22 11:56 40.73779 5.19135 34009 ft 404 kts 300°
2026-04-22 11:57 40.79329 5.07659 34008 ft 405 kts 300°
2026-04-22 11:57 40.84889 4.96125 34008 ft 406 kts 300°
2026-04-22 11:58 40.90461 4.84591 34007 ft 406 kts 300°
2026-04-22 11:58 40.96070 4.72950 34006 ft 405 kts 301°
2026-04-22 11:59 41.02452 4.59638 34008 ft 406 kts 301°
2026-04-22 11:59 41.09954 4.43917 34008 ft 404 kts 301°
2026-04-22 12:00 41.13808 4.35809 33357 ft 409 kts 302°
2026-04-22 12:00 41.17524 4.27968 30834 ft 420 kts 301°
2026-04-22 12:00 41.20587 4.21495 28987 ft 414 kts 301°
2026-04-22 12:00 41.22097 4.18301 28830 ft 391 kts 301°
2026-04-22 12:01 41.24081 4.14100 28784 ft 371 kts 301°
2026-04-22 12:01 41.26118 4.09779 28448 ft 355 kts 301°
2026-04-22 12:01 41.28068 4.05631 27920 ft 347 kts 301°
2026-04-22 12:01 41.30057 4.01387 27323 ft 360 kts 301°
2026-04-22 12:02 41.32110 3.96997 26599 ft 367 kts 301°
2026-04-22 12:02 41.33791 3.93403 25967 ft 362 kts 301°
2026-04-22 12:02 41.35811 3.89088 25248 ft 352 kts 301°
2026-04-22 12:02 41.37800 3.84836 24523 ft 342 kts 301°
2026-04-22 12:03 41.39635 3.80909 23865 ft 332 kts 301°
2026-04-22 12:03 41.41518 3.76870 23191 ft 323 kts 300°
2026-04-22 12:03 41.43345 3.72942 22552 ft 324 kts 300°
2026-04-22 12:03 41.45470 3.69058 21626 ft 340 kts 313°
2026-04-22 12:04 41.48296 3.66032 20821 ft 336 kts 324°
2026-04-22 12:04 41.51303 3.63543 20103 ft 327 kts 326°
2026-04-22 12:04 41.54263 3.61090 19415 ft 317 kts 324°
2026-04-22 12:04 41.57056 3.58602 18750 ft 307 kts 322°
2026-04-22 12:05 41.59735 3.56045 18146 ft 313 kts 321°
2026-04-22 12:05 41.62493 3.53294 17427 ft 323 kts 320°
2026-04-22 12:05 41.65232 3.50530 16697 ft 316 kts 320°
2026-04-22 12:05 41.67909 3.47842 16040 ft 306 kts 321°
2026-04-22 12:06 41.70523 3.45233 15391 ft 296 kts 321°
2026-04-22 12:06 41.73040 3.42721 14765 ft 289 kts 321°
2026-04-22 12:06 41.75568 3.40189 14156 ft 301 kts 321°
2026-04-22 12:06 41.78182 3.37562 13453 ft 305 kts 321°
2026-04-22 12:07 41.80785 3.34957 12793 ft 296 kts 320°
2026-04-22 12:07 41.83244 3.32498 12184 ft 287 kts 321°
2026-04-22 12:07 41.85575 3.30161 11604 ft 279 kts 321°
2026-04-22 12:07 41.87975 3.27746 10979 ft 277 kts 321°
2026-04-22 12:08 41.90359 3.25343 10376 ft 274 kts 321°
2026-04-22 12:08 41.92728 3.22954 9952 ft 268 kts 321°
2026-04-22 12:08 41.94936 3.20650 9974 ft 259 kts 315°
2026-04-22 12:08 41.96701 3.17776 9689 ft 253 kts 301°
2026-04-22 12:09 41.98038 3.14622 8802 ft 254 kts 298°
2026-04-22 12:09 41.99401 3.11475 8072 ft 250 kts 301°
2026-04-22 12:09 42.00855 3.08508 7578 ft 240 kts 303°
2026-04-22 12:09 42.02296 3.05699 7157 ft 231 kts 303°
2026-04-22 12:10 42.03711 3.02893 6732 ft 243 kts 302°
2026-04-22 12:10 42.05171 2.99931 6209 ft 248 kts 302°
2026-04-22 12:10 42.06636 2.96947 5705 ft 246 kts 302°
2026-04-22 12:10 42.08100 2.93976 5219 ft 244 kts 302°
2026-04-22 12:11 42.09110 2.91930 5103 ft 234 kts 303°
2026-04-22 12:11 42.09989 2.90127 4959 ft 226 kts 300°
2026-04-22 12:11 42.10612 2.88244 4731 ft 223 kts 281°
2026-04-22 12:11 42.10521 2.86200 4521 ft 220 kts 250°
2026-04-22 12:12 42.09753 2.84405 4310 ft 227 kts 232°
2026-04-22 12:12 42.08521 2.83076 3952 ft 231 kts 206°
2026-04-22 12:12 42.06984 2.82374 3615 ft 232 kts 194°
2026-04-22 12:12 42.05423 2.81878 3311 ft 229 kts 194°
2026-04-22 12:13 42.03947 2.81332 3032 ft 213 kts 196°
2026-04-22 12:13 42.02571 2.80782 2706 ft 197 kts 196°
2026-04-22 12:13 42.01325 2.80308 2464 ft 178 kts 195°
2026-04-22 12:13 42.00169 2.79874 2213 ft 163 kts 196°
2026-04-22 12:14 41.99113 2.79472 2037 ft 156 kts 195°
2026-04-22 12:14 41.98076 2.79078 1824 ft 154 kts 195°
2026-04-22 12:14 41.97073 2.78696 1633 ft 152 kts 195°
2026-04-22 12:14 41.96040 2.78312 1407 ft 152 kts 194°
2026-04-22 12:15 41.95065 2.77946 1214 ft 151 kts 195°
2026-04-22 12:15 41.94055 2.77543 1042 ft 151 kts 195°
2026-04-22 12:15 41.93031 2.77164 845 ft 152 kts 195°
2026-04-22 12:15 41.92015 2.76781 639 ft 152 kts 195°
2026-04-22 12:16 41.90995 2.76395 479 ft 147 kts 195°
2026-04-22 12:16 41.90216 2.76101 474 ft 78 kts 197°
2026-04-22 12:16 41.89909 2.75986 474 ft 15 kts 195°